Location: B?dimalle
(17.1788°N, 80.5377°E)
Time: 08:33:56
(UTC+00:00)

Courier 1B Rocket - Pass Details

Date: 16 December 2025
Orbit: 920 x 1201 km, 28.2° (Epoch: 24 January)

Event Time Altitude Azimuth Distance (km) Brightness Sun altitude
Exits shadow 22:55:32 33° 208° (SSW) 1,605 6.0 -28.8°
Drops below altitude 10° 23:00:59 10° 150° (SSE) 2,670 7.9 -27.6°
Sets 23:03:49 0° 140° (SE) 3,586 8.8 -26.9°
